User: anonymous   Login
Location: Unspecified
(0.0000°N, 0.0000°E)
Time: 03:05:43
(UTC+00:00)
Language:

N. Korean satellite - Orbit

View from above orbital plane
View from above orbital plane
View from above satellite
View from above satellite

Ground track
Ground track

The orbit data is extracted from the following two-line orbital elements,

1 39026U 12072A   17351.50804007  .00001739  00000-0  68660-4 0  9993
2 39026  97.2158   3.0822 0038228 246.7164 113.0050 15.26199335277945
Epoch (UTC): 17 December 2017 12:11:34
Eccentricity: 0.0038228
inclination: 97.2158°
perigee height: 461 km
apogee height: 513 km
right ascension of ascending node: 3.0822°
argument of perigee: 246.7164°
revolutions per day: 15.26199335
mean anomaly at epoch: 113.0050°
orbit number at epoch: 27794

The dashed part of the orbit path shows where the satellite is in the earth's shadow,  

DLR